User: anonymous   Login
Location: Feydey
(46.3431°N, 7.0106°E)
Time: 19:04:26
(UTC+00:00)
Language:

Cosmos 1328 - Orbit

View from above orbital plane
View from above orbital plane
View from above satellite
View from above satellite

Ground track
Ground track

The orbit data is extracted from the following two-line orbital elements,

1 12987U 81117A   21268.11743050  .00001718  00000-0  10778-3 0  9998
2 12987  82.5184 160.6981 0020983  72.9322 287.4203 15.08502642167424
Epoch (UTC): 25 September 2021 02:49:05
Eccentricity: 0.0020983
inclination: 82.5184°
perigee height: 526 km
apogee height: 555 km
right ascension of ascending node: 160.6981°
argument of perigee: 72.9322°
revolutions per day: 15.08502642
mean anomaly at epoch: 287.4203°
orbit number at epoch: 16742

The dashed part of the orbit path shows where the satellite is in the earth's shadow,  

DLR